Year,Month,Day,Hour,Minute,Value (Times are PST for temperature in C)
2015,06,21,06,29,13.70
2015,06,21,06,30,13.70
2015,06,21,06,31,13.80
2015,06,21,06,32,13.90
2015,06,21,06,33,13.90
2015,06,21,06,34,14.00
2015,06,21,06,35,14.00
2015,06,21,06,36,14.10
2015,06,21,06,37,14.10
2015,06,21,06,38,14.20
2015,06,21,06,39,14.20
2015,06,21,06,40,14.20
2015,06,21,06,41,14.30
2015,06,21,06,42,14.40
2015,06,21,06,43,14.50
2015,06,21,06,44,14.50
2015,06,21,06,45,14.60
2015,06,21,06,46,14.60
2015,06,21,06,47,14.60
2015,06,21,06,48,14.60
2015,06,21,06,49,14.70
2015,06,21,06,50,14.80
2015,06,21,06,51,14.80
2015,06,21,06,52,14.80
2015,06,21,06,53,14.90
2015,06,21,06,54,15.00
2015,06,21,06,55,15.00
2015,06,21,06,56,15.10
2015,06,21,06,57,15.10
2015,06,21,06,58,15.20
2015,06,21,06,59,15.20
2015,06,21,07,00,15.20
2015,06,21,07,01,15.30
2015,06,21,07,02,15.30
2015,06,21,07,03,15.30
2015,06,21,07,04,15.30
2015,06,21,07,05,15.40
2015,06,21,07,06,15.50
2015,06,21,07,07,15.50
2015,06,21,07,08,15.60
2015,06,21,07,09,15.70
2015,06,21,07,10,15.80
2015,06,21,07,11,15.90
2015,06,21,07,12,16.00
2015,06,21,07,13,16.10
2015,06,21,07,14,16.20
2015,06,21,07,15,16.30
2015,06,21,07,16,16.40
2015,06,21,07,17,16.40
2015,06,21,07,18,16.40
2015,06,21,07,19,16.40
2015,06,21,07,20,16.50
2015,06,21,07,21,16.60
2015,06,21,07,22,16.50
2015,06,21,07,23,16.40
2015,06,21,07,24,16.40
2015,06,21,07,25,16.40
2015,06,21,07,26,16.40
2015,06,21,07,27,16.40
2015,06,21,07,28,16.40
2015,06,21,07,29,16.30
2015,06,21,07,30,16.20
2015,06,21,07,31,16.10
2015,06,21,07,32,16.00
2015,06,21,07,33,15.90
2015,06,21,07,34,15.80
2015,06,21,07,35,15.80
2015,06,21,07,36,15.70
2015,06,21,07,37,15.70
2015,06,21,07,38,15.60
2015,06,21,07,39,15.60
2015,06,21,07,40,15.60
2015,06,21,07,41,15.60
2015,06,21,07,42,15.60
2015,06,21,07,43,15.60
2015,06,21,07,44,15.60
2015,06,21,07,45,15.60
2015,06,21,07,46,15.60
2015,06,21,07,47,15.60
2015,06,21,07,48,15.60
2015,06,21,07,49,15.60
2015,06,21,07,50,15.60
2015,06,21,07,51,15.60
2015,06,21,07,52,15.60
2015,06,21,07,53,15.60
2015,06,21,07,54,15.60
2015,06,21,07,55,15.60
2015,06,21,07,56,15.60
2015,06,21,07,57,15.70
2015,06,21,07,58,15.70
2015,06,21,07,59,15.70
2015,06,21,08,00,15.70
2015,06,21,08,01,15.60
2015,06,21,08,02,15.60
2015,06,21,08,03,15.60
2015,06,21,08,04,15.50
2015,06,21,08,05,15.50
2015,06,21,08,06,15.50
2015,06,21,08,07,15.40
2015,06,21,08,08,15.40
2015,06,21,08,09,15.40
2015,06,21,08,10,15.40
2015,06,21,08,11,15.40
2015,06,21,08,12,15.40
2015,06,21,08,13,15.40
2015,06,21,08,14,15.40
2015,06,21,08,15,15.50
2015,06,21,08,16,15.50
2015,06,21,08,17,15.50
2015,06,21,08,18,15.50
2015,06,21,08,19,15.60
2015,06,21,08,20,15.60
2015,06,21,08,21,15.60
2015,06,21,08,22,15.70
2015,06,21,08,23,15.70
2015,06,21,08,24,15.70
2015,06,21,08,25,15.70
2015,06,21,08,26,15.70
2015,06,21,08,27,15.70
2015,06,21,08,28,15.70
2015,06,21,08,29,15.70
2015,06,21,08,30,15.70
2015,06,21,08,31,15.80
2015,06,21,08,32,15.80
2015,06,21,08,33,15.80
2015,06,21,08,34,15.80
2015,06,21,08,35,15.80
2015,06,21,08,36,15.80
2015,06,21,08,37,15.80
2015,06,21,08,38,15.80
2015,06,21,08,39,15.90
2015,06,21,08,40,16.00
2015,06,21,08,41,16.10
2015,06,21,08,42,16.10
2015,06,21,08,43,16.10
2015,06,21,08,44,16.10
2015,06,21,08,45,16.10
2015,06,21,08,46,16.20
2015,06,21,08,47,16.20
2015,06,21,08,48,16.30
2015,06,21,08,49,16.40
2015,06,21,08,50,16.40
2015,06,21,08,51,16.40
2015,06,21,08,52,16.50
2015,06,21,08,53,16.60
2015,06,21,08,54,16.60
2015,06,21,08,55,16.60
2015,06,21,08,56,16.60
2015,06,21,08,57,16.70
2015,06,21,08,58,16.70
2015,06,21,08,59,16.70
2015,06,21,09,00,16.80
2015,06,21,09,01,16.90
2015,06,21,09,02,17.00
2015,06,21,09,03,17.00
2015,06,21,09,04,17.10
2015,06,21,09,05,17.10
2015,06,21,09,06,17.10
2015,06,21,09,07,17.10
2015,06,21,09,08,17.10
2015,06,21,09,09,17.10
2015,06,21,09,10,17.00
2015,06,21,09,11,17.00
2015,06,21,09,12,17.00
2015,06,21,09,13,17.10
2015,06,21,09,14,17.10
2015,06,21,09,15,17.20
2015,06,21,09,16,17.20
2015,06,21,09,17,17.20
2015,06,21,09,18,17.30
2015,06,21,09,19,17.40
2015,06,21,09,20,17.50
2015,06,21,09,21,17.60
2015,06,21,09,22,17.70
2015,06,21,09,23,17.80
2015,06,21,09,24,17.80
2015,06,21,09,25,17.90
2015,06,21,09,26,17.90
2015,06,21,09,27,17.90
2015,06,21,09,28,17.90
2015,06,21,09,29,17.90
2015,06,21,09,30,18.00
2015,06,21,09,31,18.10
2015,06,21,09,32,18.20
2015,06,21,09,33,18.20
2015,06,21,09,34,18.20
2015,06,21,09,35,18.20
2015,06,21,09,36,18.30
2015,06,21,09,37,18.30
2015,06,21,09,38,18.40
2015,06,21,09,39,18.40
2015,06,21,09,40,18.50
2015,06,21,09,41,18.60
2015,06,21,09,42,18.60
2015,06,21,09,43,18.60
2015,06,21,09,44,18.60
2015,06,21,09,45,18.60
2015,06,21,09,46,18.60
2015,06,21,09,47,18.60
2015,06,21,09,48,18.50
2015,06,21,09,49,18.50
2015,06,21,09,50,18.60
2015,06,21,09,51,18.60
2015,06,21,09,52,18.60
2015,06,21,09,53,18.60
2015,06,21,09,54,18.60
2015,06,21,09,55,18.60
2015,06,21,09,56,18.60
2015,06,21,09,57,18.60
2015,06,21,09,58,18.70
2015,06,21,09,59,18.70
2015,06,21,10,00,18.70
2015,06,21,10,01,18.70
2015,06,21,10,02,18.70
2015,06,21,10,03,18.60
2015,06,21,10,04,18.70
2015,06,21,10,05,18.70
2015,06,21,10,06,18.70
2015,06,21,10,07,18.80
2015,06,21,10,08,18.90
2015,06,21,10,09,18.90
2015,06,21,10,10,19.00
2015,06,21,10,11,19.10
2015,06,21,10,12,19.10
2015,06,21,10,13,19.10
2015,06,21,10,14,19.10
2015,06,21,10,15,19.10
2015,06,21,10,16,19.20
2015,06,21,10,17,19.20
2015,06,21,10,18,19.20
2015,06,21,10,19,19.10
2015,06,21,10,20,19.10
2015,06,21,10,21,19.10
2015,06,21,10,22,19.10
2015,06,21,10,23,19.10
2015,06,21,10,24,19.20
2015,06,21,10,25,19.20
2015,06,21,10,26,19.30
2015,06,21,10,27,19.30
2015,06,21,10,28,19.30
2015,06,21,10,29,19.30
2015,06,21,10,30,19.20
2015,06,21,10,31,19.20
2015,06,21,10,32,19.30
2015,06,21,10,33,19.30
2015,06,21,10,34,19.30
2015,06,21,10,35,19.30
2015,06,21,10,36,19.30
2015,06,21,10,37,19.40
2015,06,21,10,38,19.50
2015,06,21,10,39,19.50
2015,06,21,10,40,19.60
2015,06,21,10,41,19.60
2015,06,21,10,42,19.60
2015,06,21,10,43,19.70
2015,06,21,10,44,19.70
2015,06,21,10,45,19.70
2015,06,21,10,46,19.70
2015,06,21,10,47,19.80
2015,06,21,10,48,19.80
2015,06,21,10,49,19.70
2015,06,21,10,50,19.70
2015,06,21,10,51,19.70
2015,06,21,10,52,19.80
2015,06,21,10,53,19.80
2015,06,21,10,54,19.90
2015,06,21,10,55,19.90
2015,06,21,10,56,20.00
2015,06,21,10,57,20.00
2015,06,21,10,58,19.90
2015,06,21,10,59,19.90
2015,06,21,11,00,19.90
2015,06,21,11,01,19.80
2015,06,21,11,02,19.80
2015,06,21,11,03,19.90
2015,06,21,11,04,19.90
2015,06,21,11,05,19.90
2015,06,21,11,06,19.90
2015,06,21,11,07,19.80
2015,06,21,11,08,19.70
2015,06,21,11,09,19.70
2015,06,21,11,10,19.60
2015,06,21,11,11,19.50
2015,06,21,11,12,19.50
2015,06,21,11,13,19.50
2015,06,21,11,14,19.40
2015,06,21,11,15,19.30
2015,06,21,11,16,19.30
2015,06,21,11,17,19.30
2015,06,21,11,18,19.40
2015,06,21,11,19,19.50
2015,06,21,11,20,19.50
2015,06,21,11,21,19.60
2015,06,21,11,22,19.60
2015,06,21,11,23,19.70
2015,06,21,11,24,19.70
2015,06,21,11,25,19.70
2015,06,21,11,26,19.70
2015,06,21,11,27,19.70
2015,06,21,11,28,19.60
2015,06,21,11,29,19.60
2015,06,21,11,30,19.70
2015,06,21,11,31,19.80
2015,06,21,11,32,19.90
2015,06,21,11,33,19.80
2015,06,21,11,34,19.80
2015,06,21,11,35,19.80
2015,06,21,11,36,19.80
2015,06,21,11,37,19.70
2015,06,21,11,38,19.70
2015,06,21,11,39,19.70
2015,06,21,11,40,19.60
2015,06,21,11,41,19.60
2015,06,21,11,42,19.50
2015,06,21,11,43,19.50
2015,06,21,11,44,19.60
2015,06,21,11,45,19.70
2015,06,21,11,46,19.80
2015,06,21,11,47,19.90
2015,06,21,11,48,20.00
2015,06,21,11,49,20.10
2015,06,21,11,50,20.10
2015,06,21,11,51,20.10
2015,06,21,11,52,20.20
2015,06,21,11,53,20.20
2015,06,21,11,54,20.20
2015,06,21,11,55,20.10
2015,06,21,11,56,20.10
2015,06,21,11,57,20.10
2015,06,21,11,58,20.10
2015,06,21,11,59,20.10
2015,06,21,12,00,20.10
2015,06,21,12,01,20.10
2015,06,21,12,02,20.10
2015,06,21,12,03,20.20
2015,06,21,12,04,20.20
2015,06,21,12,05,20.40
2015,06,21,12,06,20.50
2015,06,21,12,07,20.70
2015,06,21,12,08,20.80
2015,06,21,12,09,20.90
2015,06,21,12,10,20.90
2015,06,21,12,11,20.90
2015,06,21,12,12,20.80
2015,06,21,12,13,20.70
2015,06,21,12,14,20.60
2015,06,21,12,15,20.50
2015,06,21,12,16,20.50
2015,06,21,12,17,20.50
2015,06,21,12,18,20.50
2015,06,21,12,19,20.40
2015,06,21,12,20,20.40
2015,06,21,12,21,20.40
2015,06,21,12,22,20.30
2015,06,21,12,23,20.30
2015,06,21,12,24,20.30
2015,06,21,12,25,20.40
2015,06,21,12,26,20.40
2015,06,21,12,27,20.50
2015,06,21,12,28,20.50
2015,06,21,12,29,20.50
2015,06,21,12,30,20.50
2015,06,21,12,31,20.60
2015,06,21,12,32,20.60
2015,06,21,12,33,20.70
2015,06,21,12,34,20.80
2015,06,21,12,35,20.90
2015,06,21,12,36,21.10
2015,06,21,12,37,21.20
2015,06,21,12,38,21.30
2015,06,21,12,39,21.10
2015,06,21,12,40,21.00
2015,06,21,12,41,20.90
2015,06,21,12,42,20.80
2015,06,21,12,43,20.80
2015,06,21,12,44,20.80
2015,06,21,12,45,20.90
2015,06,21,12,46,21.00
2015,06,21,12,47,21.10
2015,06,21,12,48,21.10
2015,06,21,12,49,21.10
2015,06,21,12,50,21.20
2015,06,21,12,51,21.30
2015,06,21,12,52,21.30
2015,06,21,12,53,21.10
2015,06,21,12,54,21.00
2015,06,21,12,55,21.00
2015,06,21,12,56,21.00
2015,06,21,12,57,21.10
2015,06,21,12,58,21.20
2015,06,21,12,59,21.30
2015,06,21,13,00,21.30
2015,06,21,13,01,21.30
2015,06,21,13,02,21.30
2015,06,21,13,03,21.30
2015,06,21,13,04,21.30
2015,06,21,13,05,21.30
2015,06,21,13,06,21.30
2015,06,21,13,07,21.30
2015,06,21,13,08,21.30
2015,06,21,13,09,21.30
2015,06,21,13,10,21.30
2015,06,21,13,11,21.50
2015,06,21,13,12,21.60
2015,06,21,13,13,21.80
2015,06,21,13,14,21.90
2015,06,21,13,15,22.00
2015,06,21,13,16,22.10
2015,06,21,13,17,22.20
2015,06,21,13,18,22.20
2015,06,21,13,19,22.00
2015,06,21,13,20,21.80
2015,06,21,13,21,21.70
2015,06,21,13,22,21.60
2015,06,21,13,23,21.50
2015,06,21,13,24,21.40
2015,06,21,13,25,21.40
2015,06,21,13,26,21.40
2015,06,21,13,27,21.30
2015,06,21,13,28,21.30
2015,06,21,13,29,21.10
2015,06,21,13,30,21.10
2015,06,21,13,31,21.20
2015,06,21,13,32,21.20
2015,06,21,13,33,21.20
2015,06,21,13,34,21.20
2015,06,21,13,35,21.30
2015,06,21,13,36,21.30
2015,06,21,13,37,21.30
2015,06,21,13,38,21.30
2015,06,21,13,39,21.40
2015,06,21,13,40,21.50
2015,06,21,13,41,21.70
2015,06,21,13,42,21.90
2015,06,21,13,43,22.00
2015,06,21,13,44,22.00
2015,06,21,13,45,22.00
2015,06,21,13,46,22.00
2015,06,21,13,47,21.90
2015,06,21,13,48,21.90
2015,06,21,13,49,21.80
2015,06,21,13,50,21.80
2015,06,21,13,51,21.90
2015,06,21,13,52,21.90
2015,06,21,13,53,22.00
2015,06,21,13,54,22.00
2015,06,21,13,55,22.00
2015,06,21,13,56,21.90
2015,06,21,13,57,22.00
2015,06,21,13,58,21.90
2015,06,21,13,59,21.70
2015,06,21,14,00,21.60
2015,06,21,14,01,21.60
2015,06,21,14,02,21.60
2015,06,21,14,03,21.70
2015,06,21,14,04,21.80
2015,06,21,14,05,21.90
2015,06,21,14,06,21.90
2015,06,21,14,07,22.00
2015,06,21,14,08,21.90
2015,06,21,14,09,21.90
2015,06,21,14,10,21.80
2015,06,21,14,11,21.80
2015,06,21,14,12,21.80
2015,06,21,14,13,21.90
2015,06,21,14,14,21.80
2015,06,21,14,15,21.80
2015,06,21,14,16,21.70
2015,06,21,14,17,21.60
2015,06,21,14,18,21.60
2015,06,21,14,19,21.50
2015,06,21,14,20,21.40
2015,06,21,14,21,21.60
2015,06,21,14,22,21.60
2015,06,21,14,23,21.90
2015,06,21,14,24,22.00
2015,06,21,14,25,22.10
2015,06,21,14,26,22.10
2015,06,21,14,27,22.10
2015,06,21,14,28,22.00
2015,06,21,14,29,22.00
2015,06,21,14,30,22.00
2015,06,21,14,31,22.00
2015,06,21,14,32,22.00
2015,06,21,14,33,21.90
2015,06,21,14,34,21.80
2015,06,21,14,35,21.80
2015,06,21,14,36,21.90
2015,06,21,14,37,21.80
2015,06,21,14,38,21.80
2015,06,21,14,39,21.90
2015,06,21,14,40,22.00
2015,06,21,14,41,22.10
2015,06,21,14,42,22.10
2015,06,21,14,43,22.20
2015,06,21,14,44,22.20
2015,06,21,14,45,22.30
2015,06,21,14,46,22.40
2015,06,21,14,47,22.40
2015,06,21,14,48,22.40
2015,06,21,14,49,22.40
2015,06,21,14,50,22.60
2015,06,21,14,51,22.60
2015,06,21,14,52,22.60
2015,06,21,14,53,22.70
2015,06,21,14,54,22.90
2015,06,21,14,55,22.90
2015,06,21,14,56,23.00
2015,06,21,14,57,23.10
2015,06,21,14,58,23.10
2015,06,21,14,59,23.20
2015,06,21,15,00,23.20
2015,06,21,15,01,23.30
2015,06,21,15,02,23.40
2015,06,21,15,03,23.60
2015,06,21,15,04,23.70
2015,06,21,15,05,23.80
2015,06,21,15,06,23.90
2015,06,21,15,07,23.90
2015,06,21,15,08,23.90
2015,06,21,15,09,23.90
2015,06,21,15,10,24.00
2015,06,21,15,11,24.10
2015,06,21,15,12,24.10
2015,06,21,15,13,24.20
2015,06,21,15,14,24.10
2015,06,21,15,15,24.10
2015,06,21,15,16,24.10
2015,06,21,15,17,24.10
2015,06,21,15,18,24.10
2015,06,21,15,19,24.10
2015,06,21,15,20,24.10
2015,06,21,15,21,24.20
2015,06,21,15,22,24.20
2015,06,21,15,23,24.30
2015,06,21,15,24,24.30
2015,06,21,15,25,24.40
2015,06,21,15,26,24.40
2015,06,21,15,27,24.50
2015,06,21,15,28,24.50
2015,06,21,15,29,24.60
2015,06,21,15,30,24.60
2015,06,21,15,31,24.60
2015,06,21,15,32,24.60
2015,06,21,15,33,24.50
2015,06,21,15,34,24.20
2015,06,21,15,35,24.10
2015,06,21,15,36,23.90
2015,06,21,15,37,23.70
2015,06,21,15,38,23.50
2015,06,21,15,39,23.30
2015,06,21,15,40,23.10
2015,06,21,15,41,23.00
2015,06,21,15,42,22.80
2015,06,21,15,43,22.80
2015,06,21,15,44,22.70
2015,06,21,15,45,22.60
2015,06,21,15,46,22.50
2015,06,21,15,47,22.40
2015,06,21,15,48,22.30
2015,06,21,15,49,22.30
2015,06,21,15,50,22.20
2015,06,21,15,51,22.10
2015,06,21,15,52,22.00
2015,06,21,15,53,21.90
2015,06,21,15,54,21.80
2015,06,21,15,55,21.70
2015,06,21,15,56,21.70
2015,06,21,15,57,21.70
2015,06,21,15,58,21.60
2015,06,21,15,59,21.60
2015,06,21,16,00,21.60
2015,06,21,16,01,21.60
2015,06,21,16,02,21.60
2015,06,21,16,03,21.70
2015,06,21,16,04,21.60
2015,06,21,16,05,21.70
2015,06,21,16,06,21.70
2015,06,21,16,07,21.70
2015,06,21,16,08,21.70
2015,06,21,16,09,21.70
2015,06,21,16,10,21.80
2015,06,21,16,11,21.90
2015,06,21,16,12,21.90
2015,06,21,16,13,22.00
2015,06,21,16,14,22.00
2015,06,21,16,15,21.90
2015,06,21,16,16,21.80
2015,06,21,16,17,21.70
2015,06,21,16,18,21.60
2015,06,21,16,19,21.60
2015,06,21,16,20,21.60
2015,06,21,16,21,21.50
2015,06,21,16,22,21.40
2015,06,21,16,23,21.40
2015,06,21,16,24,21.40
2015,06,21,16,25,21.40
2015,06,21,16,26,21.40
2015,06,21,16,27,21.40
2015,06,21,16,28,21.60
2015,06,21,16,29,21.60
2015,06,21,16,30,21.50
2015,06,21,16,31,21.40
2015,06,21,16,32,21.30
2015,06,21,16,33,21.30
2015,06,21,16,34,21.30
2015,06,21,16,35,21.30
2015,06,21,16,36,21.30
2015,06,21,16,37,21.20
2015,06,21,16,38,21.10
2015,06,21,16,39,21.10
2015,06,21,16,40,21.20
2015,06,21,16,41,21.20
2015,06,21,16,42,21.20
2015,06,21,16,43,21.30
2015,06,21,16,44,21.30
2015,06,21,16,45,21.30
2015,06,21,16,46,21.30
2015,06,21,16,47,21.30
2015,06,21,16,48,21.40
2015,06,21,16,49,21.50
2015,06,21,16,50,21.60
2015,06,21,16,51,21.60
2015,06,21,16,52,21.70
2015,06,21,16,53,21.70
2015,06,21,16,54,21.70
2015,06,21,16,55,21.70
2015,06,21,16,56,21.70
2015,06,21,16,57,21.60
2015,06,21,16,58,21.40
2015,06,21,16,59,21.30
2015,06,21,17,00,21.30
2015,06,21,17,01,21.30
2015,06,21,17,02,21.30
2015,06,21,17,03,21.30
2015,06,21,17,04,21.20
2015,06,21,17,05,21.10
2015,06,21,17,06,21.00
2015,06,21,17,07,20.90
2015,06,21,17,08,20.80
2015,06,21,17,09,20.70
2015,06,21,17,10,20.80
2015,06,21,17,11,20.90
2015,06,21,17,12,21.00
2015,06,21,17,13,21.10
2015,06,21,17,14,21.10
2015,06,21,17,15,21.20
2015,06,21,17,16,21.30
2015,06,21,17,17,21.40
2015,06,21,17,18,21.50
2015,06,21,17,19,21.60
2015,06,21,17,20,21.60
2015,06,21,17,21,21.60
2015,06,21,17,22,21.60
2015,06,21,17,23,21.60
2015,06,21,17,24,21.60
2015,06,21,17,25,21.60
2015,06,21,17,26,21.70
2015,06,21,17,27,21.70
2015,06,21,17,28,21.60
2015,06,21,17,29,21.60
2015,06,21,17,30,21.60
2015,06,21,17,31,21.60
2015,06,21,17,32,21.60
2015,06,21,17,33,21.70
2015,06,21,17,34,21.90
2015,06,21,17,35,21.90
2015,06,21,17,36,22.00
2015,06,21,17,37,22.00
2015,06,21,17,38,22.00
2015,06,21,17,39,22.10
2015,06,21,17,40,22.10
2015,06,21,17,41,22.20
2015,06,21,17,42,22.20
2015,06,21,17,43,22.30
2015,06,21,17,44,22.30
2015,06,21,17,45,22.30
2015,06,21,17,46,22.30
2015,06,21,17,47,22.20
2015,06,21,17,48,22.20
2015,06,21,17,49,22.20
2015,06,21,17,50,22.20
2015,06,21,17,51,22.20
2015,06,21,17,52,22.20
2015,06,21,17,53,22.20
2015,06,21,17,54,22.20
2015,06,21,17,55,22.20
2015,06,21,17,56,22.20
2015,06,21,17,57,22.20
2015,06,21,17,58,22.30
2015,06,21,17,59,22.30
2015,06,21,18,00,22.30
2015,06,21,18,01,22.40
2015,06,21,18,02,22.40
2015,06,21,18,03,22.40
2015,06,21,18,04,22.40
2015,06,21,18,05,22.50
2015,06,21,18,06,22.50
2015,06,21,18,07,22.50
2015,06,21,18,08,22.40
2015,06,21,18,09,22.40
2015,06,21,18,10,22.30
2015,06,21,18,11,22.30
2015,06,21,18,12,22.30
2015,06,21,18,13,22.30
2015,06,21,18,14,22.30
2015,06,21,18,15,22.30
2015,06,21,18,16,22.30
2015,06,21,18,17,22.20
2015,06,21,18,18,22.20
2015,06,21,18,19,22.20
2015,06,21,18,20,22.30
2015,06,21,18,21,22.30
2015,06,21,18,22,22.20
2015,06,21,18,23,22.20
2015,06,21,18,24,22.20
2015,06,21,18,25,22.20
2015,06,21,18,26,22.20
2015,06,21,18,27,22.20
2015,06,21,18,28,22.10
2015,06,21,18,29,22.10
2015,06,21,18,30,22.10
2015,06,21,18,31,22.10
2015,06,21,18,32,22.10
2015,06,21,18,33,22.10
2015,06,21,18,34,22.10
2015,06,21,18,35,22.10
2015,06,21,18,36,22.00
2015,06,21,18,37,21.90
2015,06,21,18,38,21.90
2015,06,21,18,39,21.80
2015,06,21,18,40,21.70
2015,06,21,18,41,21.60
2015,06,21,18,42,21.60
2015,06,21,18,43,21.50
2015,06,21,18,44,21.40
2015,06,21,18,45,21.30
2015,06,21,18,46,21.30
2015,06,21,18,47,21.40
2015,06,21,18,48,21.40
2015,06,21,18,49,21.50
2015,06,21,18,50,21.60
2015,06,21,18,51,21.60
2015,06,21,18,52,21.60
2015,06,21,18,53,21.60
2015,06,21,18,54,21.60
2015,06,21,18,55,21.60
2015,06,21,18,56,21.60
2015,06,21,18,57,21.60
2015,06,21,18,58,21.60
2015,06,21,18,59,21.60
2015,06,21,19,00,21.60
2015,06,21,19,01,21.60
2015,06,21,19,02,21.60
2015,06,21,19,03,21.60
2015,06,21,19,04,21.60
2015,06,21,19,05,21.60
2015,06,21,19,06,21.60
2015,06,21,19,07,21.60
2015,06,21,19,08,21.60
2015,06,21,19,09,21.60
2015,06,21,19,10,21.60
2015,06,21,19,11,21.60
2015,06,21,19,12,21.60
2015,06,21,19,13,21.60
2015,06,21,19,14,21.60
2015,06,21,19,15,21.60
2015,06,21,19,16,21.60
2015,06,21,19,17,21.60
2015,06,21,19,18,21.60
2015,06,21,19,19,21.60
2015,06,21,19,20,21.60
2015,06,21,19,21,21.60
2015,06,21,19,22,21.60
2015,06,21,19,23,21.60
2015,06,21,19,24,21.60
2015,06,21,19,25,21.60
2015,06,21,19,26,21.60
2015,06,21,19,27,21.60
2015,06,21,19,28,21.60
2015,06,21,19,29,21.60
2015,06,21,19,30,21.60
2015,06,21,19,31,21.60
2015,06,21,19,32,21.60
2015,06,21,19,33,21.60
2015,06,21,19,34,21.60
2015,06,21,19,35,21.60
2015,06,21,19,36,21.60
2015,06,21,19,37,21.60
2015,06,21,19,38,21.50
2015,06,21,19,39,21.40
2015,06,21,19,40,21.40
2015,06,21,19,41,21.40
2015,06,21,19,42,21.40
2015,06,21,19,43,21.40
2015,06,21,19,44,21.40
2015,06,21,19,45,21.40
2015,06,21,19,46,21.40
2015,06,21,19,47,21.40
2015,06,21,19,48,21.30
2015,06,21,19,49,21.30
2015,06,21,19,50,21.20
2015,06,21,19,51,21.00
2015,06,21,19,52,20.80
2015,06,21,19,53,20.50
2015,06,21,19,54,20.20
2015,06,21,19,55,20.00
2015,06,21,19,56,19.60
2015,06,21,19,57,19.30
2015,06,21,19,58,19.00
2015,06,21,19,59,18.70
2015,06,21,20,00,18.40
2015,06,21,20,01,18.10
2015,06,21,20,02,17.80
2015,06,21,20,03,17.60
2015,06,21,20,04,17.40
2015,06,21,20,05,17.20
2015,06,21,20,06,17.00
2015,06,21,20,07,17.00
2015,06,21,20,08,16.90
2015,06,21,20,09,16.80
2015,06,21,20,10,16.70
2015,06,21,20,11,16.70
2015,06,21,20,12,16.70
2015,06,21,20,13,16.70
2015,06,21,20,14,16.70
2015,06,21,20,15,16.70
2015,06,21,20,16,16.70
2015,06,21,20,17,16.70
2015,06,21,20,18,16.70
2015,06,21,20,19,16.70
2015,06,21,20,20,16.70
2015,06,21,20,21,16.80
2015,06,21,20,22,16.80
2015,06,21,20,23,16.90
2015,06,21,20,24,16.90
2015,06,21,20,25,16.90
2015,06,21,20,26,17.00
2015,06,21,20,27,17.00
2015,06,21,20,28,16.90
2015,06,21,20,29,16.80
2015,06,21,20,30,16.70
2015,06,21,20,31,16.70
2015,06,21,20,32,16.70
2015,06,21,20,33,16.60
2015,06,21,20,34,16.50
2015,06,21,20,35,16.40
2015,06,21,20,36,16.40
2015,06,21,20,37,16.40
2015,06,21,20,38,16.40
2015,06,21,20,39,16.40
2015,06,21,20,40,16.50
2015,06,21,20,41,16.60
2015,06,21,20,42,16.60
2015,06,21,20,43,16.60
2015,06,21,20,44,16.60
2015,06,21,20,45,16.60
2015,06,21,20,46,16.60
2015,06,21,20,47,16.60
2015,06,21,20,48,16.60
2015,06,21,20,49,16.70
2015,06,21,20,50,16.70
2015,06,21,20,51,16.70
2015,06,21,20,52,16.70
2015,06,21,20,53,16.70
2015,06,21,20,54,16.70
2015,06,21,20,55,16.70
2015,06,21,20,56,16.70
2015,06,21,20,57,16.70
2015,06,21,20,58,16.70
2015,06,21,20,59,16.70
2015,06,21,21,00,16.70
2015,06,21,21,01,16.70
2015,06,21,21,02,16.70
2015,06,21,21,03,16.70
2015,06,21,21,04,16.70
2015,06,21,21,05,16.70
2015,06,21,21,06,16.70
2015,06,21,21,07,16.70
2015,06,21,21,08,16.70
